PILOTS ONLINE: 427    ATC ONLINE: 70

EGXW

RAF Waddington

Location

IATA WTN
City Waddington
Country  United Kingdom
Latitude 53° 9' 58" N
Longitude 0° 31' 25" W
Elevation 231 ft
Type Medium Airport

Map

Weather

METAR
2014/10/25 09:50
EGXW 250950Z 23013KT 9999 SCT048 11/08 Q1015 BLU NOSIG
TAF
2014/09/10 12:03
TAF EGXW 101027Z 1012/1024 14005KT 9999 SCT030

Runways

02/20 9000 ft / 200 ft

Outbound flights

Callsign Flying to Pilot ATD/STD ETA Aircraft

Inbound flights

Callsign Flying from Pilot ATD ETA Aircraft